Portada
METAR-TAF:

METAR-TAF

Aeroports :

Murray, Kentucky, Estats Units d'Amèrica

latitud: 36-39-52N, longitud: 088-22-22W, altitud: 176 m

Observació

L'informe es va fer fa 28 minuts, a les 01:35 UTC
Vent calma
Temperatura 26°C
Humitat 79%
Pressió 1014 hPa
Visibilitat: 16.1 km
Cel clar

METAR: KCEY 250135Z AUTO 00000KT 10SM CLR 26/22 A2995 RMK A01

Hora: 21:03 (02:03 UTC)


TAF: manca

Observacions i pronòstics meteorològics de més de 4000 aeroports (METAR i TAF).

Les estacions disponibles són els punts grocs i vermells al mapa.

Posi el ratolí al punt desitjat per veure el nom de l'estació.

Feu clic per veure les observacions i els pronòstics meteorològics.

Per canviar el mapa: feu clic els botons verds amb una creu de color negre per apropar; al botó verd amb un guió per allunyar la imatge; o en les fletxes verdes per a mapes adjacents.


METAR-TAF: